HYSIS (43719 NORAD) Tracking and Keplerian Element Data

This shows tracking and keplerian element data for the satellite.

Feedback or suggestion? Click here.




ElementValue
Catalog43719
NameHYSIS
Epoch Orbit3451
Epoch Day201.82281513
Epoch Year2019
RAAN269.0877
Inclination97.9463
Eccentricity0.0009474
Argument of Perigee218.3498
Mean Anonmoly141.7034
Mean Motion14.78652146
Decay Rate4.7E-07
L11 43719U 18096A 19201.82281513 .00000047 00000-0 13476-4 0 9997
L22 43719 97.9463 269.0877 0009474 218.3498 141.7034 14.78652146 34519

Live tracking and technical data element details for HYSIS (NORAD 43719). HYSIS can be tracked NOW for your location showing map with azimuth and elevation plus other details from your city location.

Track the satellite on the map from your city or location and see movement details for azimuth, elevation, latitude, longitude, range, height, and movement on the map or in text.







IsCatalogInMostPopularTable: catalog: 43719, numindb: 105
Update: records affected: 1



GetName: 43719 HYSIS

Hit Count: updated at: Mon, 22 Jul 2019 03:12:33 GMT